Regional Weather Roundup
Issued by NWS Midland/Odessa, TX

Skip options and go directly to product.
Home | Oldest Version | Previous Version | Current Version | All | Text Only | Save Text | Print | Product List | Glossary Off

Skip product version selection by date and time.   

511
ASUS44 KMAF 290710
RWRMAF
MIDLAND AREA WEATHER ROUNDUP
NATIONAL WEATHER SERVICE MIDLAND TX
200 AM CDT SUN MAY 29 2016

...IN SOUTHWEST TEXAS AND SOUTHEAST NEW MEXICO...

CITY           SKY/WX    TMP DP  RH WIND       PRES   REMARKS
ALPINE         CLEAR     67  60  77 S5        30.11S
ANDREWS        FAIR      69  57  66 E10G17    30.03S
ARTESIA        CLEAR     66  28  24 S5        30.00S
BIG SPRING     CLOUDY    67  61  79 NE17      30.06R
CARLSBAD       CLEAR     71  57  61 S6        29.97S
DRYDEN           N/A     71  68  90 NE8       29.92F
FORT STOCKTON  NOT AVBL
GUAD PASS      NOT AVBL
HOBBS          CLEAR     68  57  68 E13       30.05R
MARFA          CLEAR     58  50  75 N5        30.09F HAZE
MIDLAND AIRPK  MOCLDY    76  65  67 E9        30.02R
MIDLAND INTL   CLEAR     76  64  66 SE13      30.00S
ODESSA         CLEAR     77  64  64 SE12      30.00F
PECOS          PTCLDY    76  64  67 E13       29.94S
PRESIDIO       FAIR      79  61  53 N12       29.91F
SEMINOLE       CLEAR     66  57  71 E13       30.05S
SNYDER           N/A     64  58  83 E14       30.08F
WINK           NOT AVBL
$$
...OTHER STATIONS IN TEXAS...

CITY           SKY/WX    TMP DP  RH WIND       PRES   REMARKS
ABILENE        TSTM      64  61  90 N26G35    30.10R
AMARILLO       CLEAR     61  49  64 SE12      30.08S
AUSTIN         TSTM      75  74  96 S5        30.04S
BROWNSVILLE    PTCLDY    80  77  90 SE9       29.94F
CORPUS CHRISTI MOCLDY    78  75  90 SE7       29.97R
DALLAS FTW     CLOUDY    78  72  81 SE7       30.02F
DEL RIO        CLOUDY    80  74  81 E18G29    29.92R
EL PASO        PTCLDY    68   5   8 SW14      30.00R
HOUSTON INT    CLOUDY    73  72  96 CALM      30.03S
LUBBOCK        CLEAR     61  54  77 SE8       30.05R
SAN ANGELO     PTCLDY    73  61  65 SE12      29.99R
SAN ANTONIO    TSTM      76  73  91 E14       30.04S
WACO           CLOUDY    77  71  82 SE8       30.01R
WICHITA FALLS  NOT AVBL
$$
...OTHER LOCATIONS IN NEW MEXICO...

CITY           SKY/WX    TMP DP  RH WIND       PRES   REMARKS
ALAMAGORDO     CLEAR     64   7  10 E9        30.01F
ALBUQUERQUE    CLOUDY    66  23  19 NE3       30.09F
CANNON AFB     CLEAR     60  50  68 SE7       30.07F
CLOVIS         CLEAR     59  46  63 SE8       30.08S
HOLLOMAN AFB   CLEAR     58   9  14 NE8       29.99F
ROSWELL        CLEAR     66  25  21 S5        30.01S
RUIDOSO          N/A     46  12  25 S5        30.22S
SANTA FE       CLOUDY    54  21  27 E5        30.16S
TRUTH OR CONSE CLEAR     61   8  12 W9        30.05R
TUCUMCARI      CLEAR     65  46  50 SE12      30.05R
$$

USA.gov is the U.S. government's official web portal to all federal, state and local government web resources and services.